K4CCC-9 Weather Reports


Display with metric or nautical units.
time (UTC)temp
F
wind
direction
speed
MPH
gust
MPH
rain 1hr
in
rain 24hr
in
rain mn
in
humidity
%
barometer
mb
20260510225111 84 18 0.0 0.0 3.49 0.00 0.00 1014.2
20260510224611 84 347 0.0 0.0 3.49 0.00 0.00 1014.2
20260510224111 85 21 0.0 0.0 3.49 0.00 0.00 1014.2
20260510223611 84 330 5.0 0.0 3.49 0.00 0.00 1014.1
20260510223111 85 339 5.0 0.0 3.49 0.00 0.00 1014.1
20260510222611 85 287 0.0 0.0 3.49 0.00 0.00 1014.1
20260510222111 85 37 4.0 0.0 3.49 0.00 0.00 1014.2
20260510221611 85 318 6.0 0.0 3.49 0.00 0.00 1014.0
20260510221111 86 283 3.0 0.0 3.49 0.00 0.00 1014.0
20260510220611 85 240 5.0 0.0 3.49 0.00 0.00 1014.0
20260510220111 85 339 4.0 0.0 3.49 0.00 0.00 1013.9
20260510215611 85 321 6.0 0.0 3.49 0.00 0.00 1014.0
20260510215111 84 3 0.0 0.0 3.49 0.00 0.00 1013.9
20260510214614 85 23 8.0 0.0 3.49 0.00 0.00 1013.9
20260510214111 85 18 7.0 0.0 3.49 0.00 0.00 1013.9
20260510213611 86 332 8.0 0.0 3.49 0.00 0.00 1013.8
20260510213111 86 264 0.0 0.0 3.49 0.00 0.00 1013.8
20260510212611 86 236 6.0 0.0 3.49 0.00 0.00 1013.9
20260510212111 86 308 0.0 0.0 3.49 0.00 0.00 1013.8
20260510211611 85 24 0.0 0.0 3.49 0.00 0.00 1013.9
20260510211111 86 294 0.0 0.0 3.49 0.00 0.00 1013.8
20260510210611 85 345 0.0 0.0 3.49 0.00 0.00 1013.8
20260510210112 85 332 6.0 0.0 3.49 0.00 0.00 1013.8
20260510205611 85 316 5.0 0.0 3.49 0.00 0.00 1013.8
20260510205111 86 321 8.0 0.0 3.49 0.00 0.00 1013.8
20260510204613 85 276 0.0 0.0 3.49 0.00 0.00 1013.8
20260510204111 86 287 4.0 0.0 3.49 0.00 0.00 1013.8
20260510203611 85 30 7.0 0.0 3.49 0.00 0.00 1013.7
20260510203111 85 25 3.0 0.0 3.49 0.00 0.00 1013.8
20260510202611 86 356 0.0 0.0 3.49 0.00 0.00 1013.7
20260510202111 85 354 3.0 0.0 3.49 0.00 0.00 1013.8
20260510201611 86 309 8.0 0.0 3.49 0.00 0.00 1013.8
20260510201111 87 131 0.0 0.0 3.49 0.00 0.00 1013.7
20260510200611 86 308 0.0 0.0 3.49 0.00 0.00 1013.8
20260510200111 86 269 3.0 0.0 3.49 0.00 0.00 1014.0
20260510195612 85 318 3.0 0.0 3.49 0.00 0.00 1014.1
20260510195111 86 314 9.0 0.0 3.49 0.00 0.00 1014.1
20260510194611 86 276 3.0 0.0 3.49 0.00 0.00 1014.1
20260510194111 85 295 0.0 0.0 3.49 0.00 0.00 1014.1
20260510193611 84 321 3.0 0.0 3.49 0.00 0.00 1014.2
20260510193111 84 329 3.0 0.0 3.49 0.00 0.00 1014.2
20260510192611 84 311 5.0 0.0 3.49 0.00 0.00 1014.4
20260510192111 83 42 0.0 0.0 3.49 0.00 0.00 1014.3
20260510191611 84 6 7.0 0.0 3.49 0.00 0.00 1014.3
20260510191111 83 283 5.0 0.0 3.49 0.00 0.00 1014.4
20260510190611 81 60 0.0 0.0 3.49 0.00 0.00 1014.4
20260510190111 82 300 0.0 0.0 3.49 0.00 0.00 1014.5
20260510185611 84 18 7.0 0.0 3.49 0.00 0.00 1014.6
20260510185112 85 335 0.0 0.0 3.49 0.00 0.00 1014.5
20260510184611 84 312 6.0 0.0 3.49 0.00 0.00 1014.6
20260510184111 84 353 5.0 0.0 3.49 0.00 0.00 1014.5
20260510183611 84 298 7.0 0.0 3.49 0.00 0.00 1014.5
20260510183111 84 239 5.0 0.0 3.49 0.00 0.00 1014.6
20260510182611 83 32 0.0 0.0 3.49 0.00 0.00 1014.6
20260510182111 82 298 6.0 0.0 3.49 0.00 0.00 1014.6
20260510181611 82 263 0.0 0.0 3.49 0.00 0.00 1014.8
20260510181312 81 356 3.0 0.0 3.49 0.00 0.00 1014.9
20260510181111 82 27 5.0 0.0 3.49 0.00 0.00 1014.8
20260510180611 81 4 5.0 0.0 3.49 0.00 0.00 1014.8
20260510180111 81 356 3.0 0.0 3.49 0.00 0.00 1014.9
20260510175611 81 305 5.0 0.0 3.49 0.00 0.00 1015.0
20260510175111 82 350 5.0 0.0 3.49 0.00 0.00 1015.0
20260510174611 82 301 5.0 0.0 3.49 0.00 0.00 1015.0
20260510174111 83 329 7.0 0.0 3.49 0.00 0.00 1015.1
20260510173611 81 35 3.0 0.0 3.49 0.00 0.00 1015.2
20260510173111 79 44 6.0 0.0 3.49 0.00 0.00 1015.2
20260510172611 79 349 3.0 0.0 3.49 0.00 0.00 1015.1
20260510172111 80 290 0.0 0.0 3.49 0.00 0.00 1015.1
20260510171611 79 290 0.0 0.0 3.49 0.00 0.00 1015.1
20260510171111 79 290 0.0 0.0 3.49 0.00 0.00 1015.2
20260510170611 79 276 3.0 0.0 3.49 0.00 0.00 1015.3
20260510170111 80 6 0.0 0.0 3.49 0.00 0.00 1015.2
20260510165611 80 6 0.0 0.0 3.49 0.00 0.00 1015.3
20260510165111 80 63 0.0 0.0 3.49 0.00 0.00 1015.4
20260510164612 80 23 0.0 0.0 3.49 0.00 0.00 1015.4
20260510164111 82 23 0.0 0.0 3.49 0.00 0.00 1015.4
20260510164017 80 23 0.0 0.0 3.49 0.00 0.00 1015.3
20260510163611 80 23 0.0 0.0 3.49 0.00 0.00 1015.3
20260510163111 80 23 0.0 0.0 3.49 0.00 0.00 1015.4
20260510162612 80 48 5.0 0.0 3.49 0.00 0.00 1015.3
20260510162111 80 82 0.0 0.0 3.49 0.00 0.00 1015.4
20260510161611 80 82 0.0 0.0 3.49 0.00 0.00 1015.4
20260510161111 79 82 0.0 0.0 3.49 0.00 0.00 1015.5
20260510160612 79 66 5.0 0.0 3.49 0.00 0.00 1015.5
20260510160111 79 79 6.0 0.0 3.49 0.00 0.00 1015.7
20260510155612 78 13 5.0 0.0 3.49 0.00 0.00 1015.6
20260510155112 81 111 5.0 0.0 3.49 0.00 0.00 1015.5
20260510154612 79 55 5.0 0.0 3.49 0.00 0.00 1015.6
20260510154113 79 325 4.0 0.0 3.49 0.00 0.00 1015.6
20260510153612 78 18 5.0 0.0 3.49 0.00 0.00 1015.6
20260510153112 79 17 7.0 0.0 3.49 0.00 0.00 1015.6
20260510152612 78 21 6.0 0.0 3.49 0.00 0.00 1015.6
20260510152112 78 3 3.0 0.0 3.49 0.00 0.00 1015.6
20260510151612 78 356 0.0 0.0 3.49 0.00 0.00 1015.7
20260510151112 78 58 8.0 0.0 3.49 0.00 0.00 1015.7
20260510150833 78 51 7.0 0.0 3.49 0.00 0.00 1015.7
20260510150112 78 51 7.0 0.0 3.49 0.00 0.00 1015.7
20260510145612 78 32 0.0 0.0 3.49 0.00 0.00 1015.6
20260510145112 77 194 6.0 0.0 3.49 0.00 0.00 1015.6
20260510144612 76 276 0.0 0.0 3.49 0.00 0.00 1015.6
20260510144521 75 20 6.0 0.0 3.49 0.00 0.00 1015.5
20260510144113 76 342 1.0 0.0 3.49 0.00 0.00 1015.5
20260510143612 75 20 6.0 0.0 3.49 0.00 0.00 1015.5
20260510143441 74 14 7.0 0.0 3.49 0.00 0.00 1015.5
20260510143112 74 59 4.0 0.0 3.49 0.00 0.00 1015.5
20260510142612 74 14 7.0 0.0 3.49 0.00 0.00 1015.5
20260510142112 74 330 0.0 0.0 3.49 0.00 0.00 1015.5
20260510141613 73 338 5.0 0.0 3.49 0.00 0.00 1015.5
20260510141341 73 63 5.0 0.0 3.49 0.00 0.00 1015.5
20260510141112 73 319 0.0 0.0 3.49 0.00 0.00 1015.5
20260510140612 73 63 5.0 0.0 3.49 0.00 0.00 1015.5
20260510140113 72 35 6.0 0.0 3.49 0.00 0.00 1015.5
20260510135613 72 325 8.0 0.0 3.49 0.00 0.00 1015.6
20260510135147 71 305 5.0 0.0 3.49 0.00 0.00 1015.6
20260510135113 71 305 5.0 0.0 3.49 0.00 0.00 1015.6
20260510134612 71 339 0.0 0.0 3.49 0.00 0.00 1015.7
20260510134113 70 257 0.0 0.0 3.49 0.00 0.00 1015.5
20260510133614 70 276 5.0 0.0 3.49 0.00 0.00 1015.4
20260510133251 69 329 0.0 0.0 3.49 0.00 0.00 1015.4
20260510133112 69 329 0.0 0.0 3.49 0.00 0.00 1015.4
20260510133037 69 333 3.0 0.0 3.49 0.00 0.00 1015.3
20260510132732 69 333 3.0 0.0 3.49 0.00 0.00 1015.3
20260510132612 69 333 3.0 0.0 3.49 0.00 0.00 1015.3
20260510132528 68 295 0.0 0.0 3.49 0.00 0.00 1015.3
20260510132113 68 295 0.0 0.0 3.49 0.00 0.00 1015.3
20260510131612 68 333 0.0 0.0 3.49 0.00 0.00 1015.2
20260510131124 66 193 0.0 0.0 3.49 0.00 0.00 1015.3
20260510131114 68 321 5.0 0.0 3.49 0.00 0.00 1015.2
20260510130616 68 259 0.0 0.0 3.49 0.00 0.00 1015.2
20260510130112 67 259 0.0 0.0 3.49 0.00 0.00 1015.3
20260510125613 67 246 3.0 0.0 3.49 0.00 0.00 1015.2
20260510125335 66 264 0.0 0.0 3.49 0.00 0.00 1015.3
20260510125115 66 264 0.0 0.0 3.49 0.00 0.00 1015.3
20260510124854 66 325 3.0 0.0 3.49 0.00 0.00 1015.3
20260510124612 66 325 3.0 0.0 3.49 0.00 0.00 1015.3
20260510124350 66 245 5.0 0.0 3.49 0.00 0.00 1015.4
20260510124112 66 245 5.0 0.0 3.49 0.00 0.00 1015.4
20260510123936 66 193 0.0 0.0 3.49 0.00 0.00 1015.3
20260510123612 66 193 0.0 0.0 3.49 0.00 0.00 1015.3
20260510123112 66 291 0.0 0.0 3.49 0.00 0.00 1015.2
20260510122920 65 1 0.0 0.0 3.49 0.00 0.00 1015.2
20260510122614 65 1 0.0 0.0 3.49 0.00 0.00 1015.2
20260510122430 65 276 5.0 0.0 3.49 0.00 0.00 1015.1
20260510122255 65 7 0.0 0.0 3.49 0.00 0.00 1014.8
20260510122227 65 273 0.0 0.0 3.49 0.00 0.00 1014.9
20260510122223 65 249 0.0 0.0 3.49 0.00 0.00 1014.9
20260510122116 65 276 5.0 0.0 3.49 0.00 0.00 1015.1
20260510121612 65 7 0.0 0.0 3.49 0.00 0.00 1014.8
20260510121517 65 273 0.0 0.0 3.49 0.00 0.00 1014.9
20260510121116 65 249 0.0 0.0 3.49 0.00 0.00 1014.9
20260510120612 65 249 0.0 0.0 3.49 0.00 0.00 1014.9
20260510120511 64 267 0.0 0.0 3.49 0.00 0.00 1014.8
20260510120113 64 267 0.0 0.0 3.49 0.00 0.00 1014.8
20260510115836 64 267 0.0 0.0 3.49 0.00 0.00 1014.6
20260510115612 64 267 0.0 0.0 3.49 0.00 0.00 1014.6
20260510115539 64 267 0.0 0.0 3.49 0.00 0.00 1014.8
20260510115259 63 267 0.0 0.0 3.49 0.00 0.00 1014.6
20260510115112 64 267 0.0 0.0 3.49 0.00 0.00 1014.8
20260510114800 63 267 0.0 0.0 3.49 0.00 0.00 1014.6
20260510114612 63 267 0.0 0.0 3.49 0.00 0.00 1014.6
20260510114407 63 267 0.0 0.0 3.49 0.00 0.00 1014.5
20260510114210 62 267 0.0 0.0 3.49 0.00 0.00 1014.4
20260510114150 63 267 0.0 0.0 3.49 0.00 0.00 1014.5
20260510114112 63 267 0.0 0.0 3.49 0.00 0.00 1014.5
20260510114027 62 267 0.0 0.0 3.49 0.00 0.00 1014.4
20260510113704 62 267 0.0 0.0 3.49 0.00 0.00 1014.4
20260510113613 62 267 0.0 0.0 3.49 0.00 0.00 1014.4
20260510113540 62 267 0.0 0.0 3.49 0.00 0.00 1014.4
20260510113118 62 267 0.0 0.0 3.49 0.00 0.00 1014.4
20260510113114 62 267 0.0 0.0 3.49 0.00 0.00 1014.4
20260510112614 62 267 0.0 0.0 3.49 0.00 0.00 1014.4
20260510112112 62 267 0.0 0.0 3.49 0.00 0.00 1014.2
20260510112056 62 267 0.0 0.0 3.49 0.00 0.00 1014.2
20260510111612 62 267 0.0 0.0 3.49 0.00 0.00 1014.2
20260510111531 62 267 0.0 0.0 3.49 0.00 0.00 1014.2
20260510111200 62 267 0.0 0.0 3.49 0.00 0.00 1014.2
20260510111113 62 267 0.0 0.0 3.49 0.00 0.00 1014.2
20260510110731 62 267 0.0 0.0 3.49 0.00 0.00 1014.2
20260510110612 62 267 0.0 0.0 3.49 0.00 0.00 1014.2
20260510110241 61 267 0.0 0.0 3.49 0.00 0.00 1014.2
20260510110112 61 267 0.0 0.0 3.49 0.00 0.00 1014.2
20260510105615 61 267 0.0 0.0 3.49 0.00 0.00 1014.0
20260510105240 62 267 0.0 0.0 3.49 0.00 0.00 1013.9
20260510105143 62 267 0.0 0.0 3.49 0.00 0.00 1013.9
20260510105112 61 267 0.0 0.0 3.49 0.00 0.00 1014.0
20260510104616 61 267 0.0 0.0 3.49 0.00 0.00 1013.8
20260510104614 62 267 0.0 0.0 3.49 0.00 0.00 1013.9
20260510104221 61 267 0.0 0.0 3.49 0.00 0.00 1013.8
20260510104113 61 267 0.0 0.0 3.49 0.00 0.00 1013.8
20260510103614 61 267 0.0 0.0 3.49 0.00 0.00 1013.8
20260510103221 61 267 0.0 0.0 3.49 0.00 0.00 1013.5
20260510103115 61 267 0.0 0.0 3.49 0.00 0.00 1013.6
20260510102700 61 267 0.0 0.0 3.49 0.00 0.00 1013.5
20260510102613 61 267 0.0 0.0 3.49 0.00 0.00 1013.5
20260510102149 61 267 0.0 0.0 3.49 0.00 0.00 1013.5
20260510102112 61 267 0.0 0.0 3.49 0.00 0.00 1013.5
20260510101613 61 267 0.0 0.0 3.49 0.00 0.00 1013.4
20260510101524 61 267 0.0 0.0 3.49 0.00 0.00 1013.4
20260510101156 61 267 0.0 0.0 3.49 0.00 0.00 1013.3
20260510101114 61 267 0.0 0.0 3.49 0.00 0.00 1013.4
20260510100856 62 267 0.0 0.0 3.49 0.00 0.00 1013.0
20260510100740 62 267 0.0 0.0 3.49 0.00 0.00 1013.3
20260510100612 61 267 0.0 0.0 3.49 0.00 0.00 1013.3
20260510100114 62 267 0.0 0.0 3.49 0.00 0.00 1013.0
20260510095613 62 267 0.0 0.0 3.49 0.00 0.00 1013.0
20260510095447 62 267 0.0 0.0 3.49 0.00 0.00 1013.2
20260510095201 62 267 0.0 0.0 3.49 0.00 0.00 1013.0
20260510095113 62 267 0.0 0.0 3.49 0.00 0.00 1013.2
20260510094940 62 267 0.0 0.0 3.49 0.00 0.00 1013.0
20260510094931 62 267 0.0 0.0 3.49 0.00 0.00 1012.9
20260510094850 62 267 0.0 0.0 3.49 0.00 0.00 1013.0
20260510094613 62 267 0.0 0.0 3.49 0.00 0.00 1013.0
20260510094115 62 267 0.0 0.0 3.49 0.00 0.00 1013.2
20260510093946 62 267 0.0 0.0 3.49 0.00 0.00 1012.9
20260510093704 62 267 0.0 0.0 3.49 0.00 0.00 1012.9
20260510093615 62 267 0.0 0.0 3.49 0.00 0.00 1013.0
20260510093613 62 267 0.0 0.0 3.49 0.00 0.00 1012.9
20260510093214 62 267 0.0 0.0 3.49 0.00 0.00 1013.0
20260510093120 62 267 0.0 0.0 3.49 0.00 0.00 1013.0
20260510093113 62 267 0.0 0.0 3.49 0.00 0.00 1013.0
20260510092613 62 267 0.0 0.0 3.49 0.00 0.00 1013.0
20260510092540 62 267 0.0 0.0 3.49 0.00 0.00 1012.9
20260510092341 62 267 0.0 0.0 3.49 0.00 0.00 1012.8
20260510092115 62 267 0.0 0.0 3.49 0.00 0.00 1012.9
20260510091614 62 267 0.0 0.0 3.49 0.00 0.00 1012.8
20260510091208 62 267 0.0 0.0 3.49 0.00 0.00 1012.6
20260510091113 62 267 0.0 0.0 3.49 0.00 0.00 1012.8
20260510090738 62 267 0.0 0.0 3.49 0.00 0.00 1012.6
20260510090614 62 267 0.0 0.0 3.49 0.00 0.00 1012.6
20260510090527 62 267 0.0 0.0 3.49 0.00 0.00 1012.6
20260510090112 62 267 0.0 0.0 3.49 0.00 0.00 1012.6
20260510085851 61 267 0.0 0.0 3.49 0.00 0.00 1012.5
20260510085612 61 267 0.0 0.0 3.49 0.00 0.00 1012.6
20260510085113 61 267 0.0 0.0 3.49 0.00 0.00 1012.5
20260510085106 62 267 0.0 0.0 3.49 0.00 0.00 1012.5
20260510084654 61 267 0.0 0.0 3.49 0.00 0.00 1012.5
20260510084612 61 267 0.0 0.0 3.49 0.00 0.00 1012.5
20260510084521 62 267 0.0 0.0 3.49 0.00 0.00 1012.5
20260510084112 62 267 0.0 0.0 3.49 0.00 0.00 1012.5
20260510083806 62 267 0.0 0.0 3.49 0.00 0.00 1012.3
20260510083800 62 267 0.0 0.0 3.49 0.00 0.00 1012.3
20260510083614 62 267 0.0 0.0 3.49 0.00 0.00 1012.5
20260510083612 62 267 0.0 0.0 3.49 0.00 0.00 1012.5
20260510083539 62 267 0.0 0.0 3.49 0.00 0.00 1012.5
20260510083159 62 267 0.0 0.0 3.49 0.00 0.00 1012.5
20260510083112 62 267 0.0 0.0 3.49 0.00 0.00 1012.5
20260510082613 62 267 0.0 0.0 3.49 0.00 0.00 1012.5
20260510082113 62 267 0.0 0.0 3.49 0.00 0.00 1012.3
20260510081613 62 267 0.0 0.0 3.49 0.00 0.00 1012.4
20260510081416 62 267 0.0 0.0 3.49 0.00 0.00 1012.3
20260510081113 62 267 0.0 0.0 3.49 0.00 0.00 1012.3
20260510081111 62 267 0.0 0.0 3.49 0.00 0.00 1012.2
20260510080614 62 267 0.0 0.0 3.49 0.00 0.00 1012.2
20260510080113 62 267 0.0 0.0 3.49 0.00 0.00 1012.2
20260510075613 62 267 0.0 0.0 3.49 0.00 0.00 1012.2
20260510075540 62 267 0.0 0.0 3.49 0.00 0.00 1012.3
20260510075218 63 267 0.0 0.0 3.49 0.00 0.00 1012.2
20260510075113 62 267 0.0 0.0 3.49 0.00 0.00 1012.3
20260510074613 63 267 0.0 0.0 3.49 0.00 0.00 1012.1
20260510074113 63 267 0.0 0.0 3.49 0.00 0.00 1012.2
20260510073643 63 267 0.0 0.0 3.49 0.00 0.00 1012.0
20260510073613 63 267 0.0 0.0 3.49 0.00 0.00 1012.0
20260510072613 63 267 0.0 0.0 3.49 0.00 0.00 1012.1
20260510072500 63 267 0.0 0.0 3.49 0.00 0.00 1012.2
20260510072113 63 267 0.0 0.0 3.49 0.00 0.00 1012.2
20260510072103 63 267 0.0 0.0 3.49 0.00 0.00 1012.2
20260510071613 63 267 0.0 0.0 3.49 0.00 0.00 1012.2
20260510071113 62 267 0.0 0.0 3.49 0.00 0.00 1012.3
20260510071046 62 267 0.0 0.0 3.49 0.00 0.00 1012.3
20260510070613 62 267 0.0 0.0 3.49 0.00 0.00 1012.3
20260510070112 62 267 0.0 0.0 3.49 0.00 0.00 1012.1
20260510065613 62 267 0.0 0.0 3.49 0.00 0.00 1012.0
20260510065343 62 267 0.0 0.0 3.49 0.00 0.00 1012.2
20260510065113 62 267 0.0 0.0 3.49 0.00 0.00 1012.2
20260510064613 63 267 0.0 0.0 3.49 0.00 0.00 1012.1
20260510064544 63 267 0.0 0.0 3.49 0.00 0.00 1012.2
20260510064113 63 267 0.0 0.0 3.49 0.00 0.00 1012.2
20260510063613 63 267 0.0 0.0 3.49 0.00 0.00 1012.1
20260510063113 63 267 0.0 0.0 3.49 0.00 0.00 1012.2
20260510062912 63 267 0.0 0.0 3.49 0.00 0.00 1012.1
20260510062613 63 267 0.0 0.0 3.49 0.00 0.00 1012.1
20260510062426 63 267 0.0 0.0 3.49 0.00 0.00 1012.2
20260510062113 63 267 0.0 0.0 3.49 0.00 0.00 1012.2
20260510061613 63 267 0.0 0.0 3.49 0.00 0.00 1012.2
20260510061330 64 267 0.0 0.0 3.49 0.00 0.00 1012.3
20260510061113 64 267 0.0 0.0 3.49 0.00 0.00 1012.3
20260510060613 64 267 0.0 0.0 3.49 0.00 0.00 1012.2
20260510060405 64 267 0.0 0.0 3.49 0.00 0.00 1012.3
20260510060113 64 267 0.0 0.0 3.49 0.00 0.00 1012.3
20260510055613 64 267 0.0 0.0 3.49 0.00 0.00 1012.3
20260510055408 64 267 0.0 0.0 3.49 0.00 0.00 1012.4
20260510055113 64 267 0.0 0.0 3.49 0.00 0.00 1012.4
20260510054613 64 267 0.0 0.0 3.49 0.00 0.00 1012.4
20260510054113 64 267 0.0 0.0 3.49 0.00 0.00 1012.3
20260510054028 64 267 0.0 0.0 3.49 0.00 0.00 1012.5
20260510053613 64 267 0.0 0.0 3.49 0.00 0.00 1012.5
20260510053115 64 267 0.0 0.0 3.49 0.00 0.00 1012.5
20260510053027 64 267 0.0 0.0 3.49 0.00 0.00 1012.5
20260510052613 64 267 0.0 0.0 3.49 0.00 0.00 1012.5
20260510052539 64 267 0.0 0.0 3.49 0.00 0.00 1012.5
20260510052133 64 267 0.0 0.0 3.49 0.00 0.00 1012.5
20260510052113 64 267 0.0 0.0 3.49 0.00 0.00 1012.5
20260510051613 64 267 0.0 0.0 3.49 0.00 0.00 1012.5
20260510051555 64 267 0.0 0.0 3.49 0.00 0.00 1012.4
20260510051113 64 267 0.0 0.0 3.49 0.00 0.00 1012.4
20260510050945 64 267 0.0 0.0 3.49 0.00 0.00 1012.5
20260510050613 64 267 0.0 0.0 3.49 0.00 0.00 1012.5
20260510050450 64 267 0.0 0.0 3.49 0.00 0.00 1012.4
20260510050113 64 267 0.0 0.0 3.49 0.00 0.00 1012.4
20260510045939 64 267 0.0 0.0 3.49 0.00 0.00 1012.5
20260510045613 64 267 0.0 0.0 3.49 0.00 0.00 1012.5
20260510045551 64 267 0.0 0.0 3.49 0.00 0.00 1012.5
20260510045218 65 267 0.0 0.0 3.49 0.00 0.00 1012.5
20260510045113 64 267 0.0 0.0 3.49 0.00 0.00 1012.5
20260510044615 64 267 0.0 0.0 3.49 0.00 0.00 1012.5
20260510044613 65 267 0.0 0.0 3.49 0.00 0.00 1012.5
20260510044113 64 267 0.0 0.0 3.49 0.00 0.00 1012.5
20260510043844 64 267 0.0 0.0 3.49 0.00 0.00 1012.6
20260510043613 65 267 0.0 0.0 3.49 0.00 0.00 1012.5
20260510043534 64 267 0.0 0.0 3.49 0.00 0.00 1012.6
20260510043444 64 267 0.0 0.0 3.49 0.00 0.00 1012.5
20260510043113 64 267 0.0 0.0 3.49 0.00 0.00 1012.6
20260510043005 64 267 0.0 0.0 3.49 0.00 0.00 1012.5
20260510042954 65 267 0.0 0.0 3.49 0.00 0.00 1012.4
20260510042816 64 267 0.0 0.0 3.49 0.00 0.00 1012.5
20260510042613 64 267 0.0 0.0 3.49 0.00 0.00 1012.5
20260510042600 65 267 0.0 0.0 3.49 0.00 0.00 1012.4
20260510042113 65 267 0.0 0.0 3.49 0.00 0.00 1012.4
20260510041613 65 267 0.0 0.0 3.49 0.00 0.00 1012.4
20260510041537 65 267 0.0 0.0 3.49 0.00 0.00 1012.3
20260510041305 65 267 0.0 0.0 3.49 0.00 0.00 1012.3
20260510041113 65 267 0.0 0.0 3.49 0.00 0.00 1012.3
20260510040614 65 267 0.0 0.0 3.49 0.00 0.00 1012.3
20260510040113 65 267 0.0 0.0 3.49 0.00 0.00 1012.3
20260510035954 65 267 0.0 0.0 3.49 0.00 0.00 1012.3
20260510035613 65 267 0.0 0.0 3.49 0.00 0.00 1012.3
20260510035535 65 267 0.0 0.0 3.49 0.00 0.00 1012.4
20260510035113 65 267 0.0 0.0 3.49 0.00 0.00 1012.4
20260510034613 65 267 0.0 0.0 3.49 0.00 0.02 1012.5
20260510034551 66 267 0.0 0.0 3.49 0.00 0.02 1012.5
20260510034114 66 267 0.0 0.0 3.49 0.00 0.02 1012.5
20260510033858 66 267 0.0 0.0 3.49 0.00 0.02 1012.5
20260510033613 66 267 0.0 0.0 3.49 0.00 0.02 1012.5
20260510033113 66 267 0.0 0.0 3.49 0.00 0.02 1012.5
20260510033046 66 267 0.0 0.0 3.49 0.00 0.02 1012.5
20260510032613 66 267 0.0 0.0 3.49 0.00 0.02 1012.5
20260510032538 66 267 0.0 0.0 3.49 0.00 0.02 1012.6
20260510032221 67 267 0.0 0.0 3.49 0.00 0.02 1012.6
20260510032114 66 267 0.0 0.0 3.49 0.00 0.02 1012.6
20260510031649 67 267 0.0 0.0 3.49 0.00 0.02 1012.6
20260510031613 67 267 0.0 0.0 3.49 0.00 0.02 1012.6
20260510031315 66 249 0.0 0.0 3.49 0.00 0.02 1012.6
20260510031113 67 267 0.0 0.0 3.49 0.00 0.02 1012.6
20260510030613 67 267 0.0 0.0 3.49 0.00 0.02 1012.6
20260510030606 66 249 0.0 0.0 3.49 0.00 0.02 1012.6
20260510030204 66 249 0.0 0.0 3.49 0.00 0.02 1012.6
20260510030113 66 249 0.0 0.0 3.49 0.00 0.02 1012.6
20260510025910 66 249 0.0 0.0 3.49 0.00 0.02 1012.6
20260510025613 66 249 0.0 0.0 3.49 0.00 0.02 1012.6
20260510025115 66 249 0.0 0.0 3.49 0.00 0.02 1012.6
20260510024613 66 249 0.0 0.0 3.49 0.00 0.02 1012.5
20260510024247 67 249 0.0 0.0 3.49 0.00 0.02 1012.5
20260510024113 67 249 0.0 0.0 3.49 0.00 0.02 1012.5
20260510024011 67 302 0.0 0.0 3.49 0.00 0.02 1012.5
20260510024007 67 302 0.0 0.0 3.49 0.00 0.02 1012.4
20260510024005 67 302 0.0 0.0 3.49 0.00 0.02 1012.5
20260510023723 67 249 0.0 0.0 3.49 0.00 0.02 1012.5
20260510023613 67 249 0.0 0.0 3.49 0.00 0.02 1012.5
20260510023554 67 249 0.0 0.0 3.49 0.00 0.02 1012.5
20260510023113 67 249 0.0 0.0 3.49 0.00 0.02 1012.5
20260510022613 67 287 0.0 0.0 3.49 0.00 0.02 1012.6
20260510022113 67 302 0.0 0.0 3.49 0.00 0.02 1012.5
20260510021709 67 302 0.0 0.0 3.49 0.00 0.02 1012.4
20260510021613 67 302 0.0 0.0 3.49 0.00 0.02 1012.4
20260510021113 67 302 0.0 0.0 3.49 0.00 0.02 1012.5
20260510021013 67 302 0.0 0.0 3.49 0.00 0.02 1012.4
20260510020613 67 302 0.0 0.0 3.49 0.00 0.02 1012.4
20260510020113 67 302 0.0 0.0 3.49 0.00 0.02 1012.4
20260510015613 68 302 0.0 0.0 3.49 0.00 0.02 1012.4
20260510015113 68 302 0.0 0.0 3.49 0.00 0.02 1012.4
20260510014720 68 288 0.0 0.0 3.49 0.00 0.02 1012.4
20260510014613 68 288 0.0 0.0 3.49 0.00 0.02 1012.4
20260510014113 68 293 0.0 0.0 3.49 0.00 0.02 1012.2
20260510013613 67 295 0.0 0.0 3.49 0.00 0.02 1012.1
20260510013351 68 295 0.0 0.0 3.49 0.00 0.02 1011.9
20260510013113 68 295 0.0 0.0 3.49 0.00 0.02 1011.9
20260510012613 68 295 0.0 0.0 3.49 0.00 0.02 1011.9
20260510012113 68 295 0.0 0.0 3.49 0.00 0.02 1011.9
20260510011751 68 295 0.0 0.0 3.49 0.00 0.02 1011.6
20260510011613 68 295 0.0 0.0 3.49 0.00 0.02 1011.7
20260510011113 68 295 0.0 0.0 3.49 0.00 0.02 1011.7
20260510010613 68 295 0.0 0.0 3.49 0.00 0.02 1011.6
20260510010113 68 295 0.0 0.0 3.49 0.00 0.02 1011.5
20260510005613 68 295 0.0 0.0 3.49 0.00 0.02 1011.6
20260510005114 68 295 0.0 0.0 3.49 0.00 0.02 1011.4
20260510004613 68 295 0.0 0.0 3.49 0.00 0.02 1011.3
20260510004113 68 295 0.0 0.0 3.49 0.00 0.02 1011.2
20260510003714 68 295 0.0 0.0 3.49 0.00 0.02 1011.1
20260510003613 68 295 0.0 0.0 3.49 0.00 0.02 1011.1
20260510003113 69 295 0.0 0.0 3.49 0.00 0.02 1011.0
20260510002613 68 295 0.0 0.0 3.49 0.00 0.02 1010.8
20260510002114 68 295 0.0 0.0 3.49 0.00 0.02 1010.6
20260510001613 69 295 0.0 0.0 3.49 0.00 0.02 1010.7
20260510001113 69 295 0.0 0.0 3.49 0.00 0.02 1010.6
20260510000614 69 295 0.0 0.0 3.49 0.00 0.02 1010.9
20260510000113 70 295 0.0 0.0 3.49 0.00 0.02 1010.8
20260509235613 70 295 0.0 0.0 3.49 0.00 0.02 1010.7
20260509235114 70 295 0.0 0.0 3.49 0.00 0.02 1010.6
20260509234614 71 295 0.0 0.0 3.49 0.00 0.02 1010.7
20260509234114 71 295 0.0 0.0 3.49 0.00 0.02 1010.5
20260509233614 71 295 0.0 0.0 3.49 0.00 0.02 1010.4
20260509233414 71 295 0.0 0.0 3.49 0.00 0.02 1010.5
20260509233114 71 295 0.0 0.0 3.49 0.00 0.02 1010.5
20260509232614 71 285 0.0 0.0 3.49 0.00 0.02 1010.7
20260509232114 72 321 0.0 0.0 3.49 0.00 0.02 1010.5
20260509231614 72 318 0.0 0.0 3.49 0.00 0.02 1010.4
20260509231114 72 321 0.0 0.0 3.49 0.00 0.02 1010.3
20260509230614 72 321 3.0 0.0 3.49 0.00 0.02 1010.4
20260509230114 72 311 3.0 0.0 3.49 0.00 0.02 1010.4
20260509225614 72 298 0.0 0.0 3.49 0.00 0.02 1010.3